Time,TemperatureF,DewpointF,PressureIn,WindDirection,WindDirectionDegrees,WindSpeedMPH,WindSpeedGustMPH,Humidity,HourlyPrecipIn,Conditions,Clouds,dailyrainin,SoftwareType,DateUTC
2013-01-14 04:46:00,23.7,21.2,29.93,East,90,0.0,0.0,91,0.00,,,-99.99,open3600,2013-01-14 03:46:00,
2013-01-14 05:02:00,23.9,21.4,29.93,NE,45,0.0,0.0,91,0.00,,,-99.99,open3600,2013-01-14 04:02:00,
2013-01-14 05:19:00,23.9,21.4,29.93,ESE,112,0.0,0.0,91,0.00,,,-99.99,open3600,2013-01-14 04:19:00,
2013-01-14 05:35:00,23.9,21.4,29.93,ESE,112,0.0,0.0,91,0.00,,,-99.99,open3600,2013-01-14 04:35:00,
2013-01-14 05:51:00,24.1,21.6,29.93,East,90,0.0,0.0,91,0.00,,,-99.99,open3600,2013-01-14 04:51:00,
2013-01-14 06:06:00,24.1,21.6,29.93,ENE,68,0.0,0.0,91,0.00,,,-99.99,open3600,2013-01-14 05:06:00,
2013-01-14 06:21:00,24.1,21.6,29.92,SE,135,0.0,0.0,91,0.00,,,-99.99,open3600,2013-01-14 05:21:00,
2013-01-14 06:22:00,24.1,21.6,29.92,SE,135,0.0,0.0,91,0.00,,,-99.99,open3600,2013-01-14 05:22:00,
2013-01-14 06:54:00,24.1,21.6,29.92,SE,135,0.0,0.0,91,0.00,,,-99.99,open3600,2013-01-14 05:54:00,
2013-01-14 07:10:00,24.1,21.6,29.92,SE,135,0.0,0.0,91,0.00,,,-99.99,open3600,2013-01-14 06:10:00,
2013-01-14 07:25:00,24.3,21.7,29.92,SE,135,0.0,0.0,91,0.00,,,-99.99,open3600,2013-01-14 06:25:00,
2013-01-14 07:59:00,24.1,21.6,29.92,NE,45,0.0,0.0,91,0.00,,,-99.99,open3600,2013-01-14 06:59:00,
2013-01-14 08:16:00,24.3,21.7,29.92,East,90,0.0,0.0,91,0.00,,,-99.99,open3600,2013-01-14 07:16:00,
2013-01-14 08:32:00,24.3,21.7,29.91,ENE,68,0.0,0.0,91,0.00,,,-99.99,open3600,2013-01-14 07:32:00,
2013-01-14 08:47:00,24.3,21.7,29.91,ENE,68,0.0,0.0,91,0.00,,,-99.99,open3600,2013-01-14 07:47:00,
2013-01-14 09:03:00,24.3,21.7,29.91,ESE,112,0.0,0.0,91,0.00,,,-99.99,open3600,2013-01-14 08:03:00,
2013-01-14 09:18:00,24.4,21.9,29.91,ENE,68,0.0,0.0,91,0.00,,,-99.99,open3600,2013-01-14 08:18:00,
2013-01-14 09:34:00,24.3,21.7,29.91,ENE,68,0.0,0.0,91,0.00,,,-99.99,open3600,2013-01-14 08:34:00,
2013-01-14 09:51:00,24.3,21.7,29.91,ENE,68,0.0,0.0,91,0.00,,,-99.99,open3600,2013-01-14 08:51:00,
2013-01-14 10:07:00,24.3,21.7,29.91,ENE,68,0.0,0.0,91,0.00,,,-99.99,open3600,2013-01-14 09:07:00,
2013-01-14 10:23:00,24.4,21.9,29.91,ENE,68,0.0,0.0,91,0.00,,,-99.99,open3600,2013-01-14 09:23:00,
2013-01-14 10:38:00,24.4,21.9,29.91,ENE,68,0.0,0.0,91,0.00,,,-99.99,open3600,2013-01-14 09:38:00,
2013-01-14 10:54:00,24.4,21.9,29.91,ENE,68,0.0,0.0,91,0.00,,,-99.99,open3600,2013-01-14 09:54:00,
2013-01-14 11:09:00,24.6,22.1,29.91,ENE,68,0.0,0.0,91,0.00,,,-99.99,open3600,2013-01-14 10:09:00,
2013-01-14 11:27:00,24.6,22.1,29.91,ENE,68,0.0,0.0,91,0.00,,,-99.99,open3600,2013-01-14 10:27:00,
2013-01-14 11:42:00,24.8,22.3,29.91,ENE,68,0.0,0.0,91,0.00,,,-99.99,open3600,2013-01-14 10:42:00,
2013-01-14 12:00:00,24.8,22.3,29.90,ENE,68,0.0,-999.0,91,-99.99,,,-99.99,open3600,2013-01-14 11:00:00,
2013-01-14 12:16:00,24.6,22.1,29.89,ENE,68,0.0,0.0,91,0.00,,,-99.99,open3600,2013-01-14 11:16:00,
2013-01-14 12:31:00,24.8,22.3,29.88,ENE,68,0.0,0.0,91,0.00,,,-99.99,open3600,2013-01-14 11:31:00,
2013-01-14 12:47:00,24.8,22.3,29.87,ENE,68,0.0,0.0,91,0.00,,,-99.99,open3600,2013-01-14 11:47:00,
2013-01-14 13:02:00,25.0,22.5,29.87,ENE,68,0.0,0.0,91,0.00,,,-99.99,open3600,2013-01-14 12:02:00,
2013-01-14 13:18:00,25.2,22.6,29.86,ENE,68,0.0,0.0,91,0.00,,,-99.99,open3600,2013-01-14 12:18:00,
2013-01-14 13:34:00,25.3,22.8,29.86,ENE,68,0.0,0.0,91,0.00,,,-99.99,open3600,2013-01-14 12:34:00,
2013-01-14 13:49:00,25.2,22.6,29.86,ENE,68,0.0,0.0,91,0.00,,,-99.99,open3600,2013-01-14 12:49:00,
2013-01-14 14:07:00,25.3,22.8,29.86,ENE,68,0.0,0.0,91,0.00,,,-99.99,open3600,2013-01-14 13:07:00,
2013-01-14 14:22:00,25.3,22.8,29.86,ENE,68,0.0,0.0,91,0.00,,,-99.99,open3600,2013-01-14 13:22:00,
2013-01-14 14:40:00,25.5,23.0,29.86,ENE,68,0.0,0.0,91,0.00,,,-99.99,open3600,2013-01-14 13:40:00,
2013-01-14 14:55:00,25.9,23.4,29.85,ENE,68,0.0,0.0,91,0.00,,,-99.99,open3600,2013-01-14 13:55:00,
2013-01-14 15:11:00,25.9,23.4,29.85,ENE,68,0.0,0.0,91,0.00,,,-99.99,open3600,2013-01-14 14:11:00,
2013-01-14 15:26:00,25.9,23.4,29.85,ENE,68,0.0,0.0,91,0.00,,,-99.99,open3600,2013-01-14 14:26:00,
2013-01-14 15:44:00,25.7,23.2,29.85,ENE,68,0.0,0.0,91,0.00,,,-99.99,open3600,2013-01-14 14:44:00,
2013-01-14 15:59:00,25.5,23.0,29.86,ENE,68,0.0,0.0,91,0.00,,,-99.99,open3600,2013-01-14 14:59:00,
2013-01-14 16:15:00,25.5,23.0,29.86,ENE,68,0.0,0.0,91,0.00,,,-99.99,open3600,2013-01-14 15:15:00,
2013-01-14 16:31:00,25.5,23.0,29.87,ENE,68,0.0,0.0,91,0.00,,,-99.99,open3600,2013-01-14 15:31:00,
2013-01-14 16:46:00,25.5,23.0,29.86,ENE,68,0.0,0.0,91,0.00,,,-99.99,open3600,2013-01-14 15:46:00,
2013-01-14 17:19:00,25.5,22.6,29.86,ENE,68,0.0,0.0,90,0.00,,,-99.99,open3600,2013-01-14 16:19:00,
2013-01-14 17:34:00,25.3,22.5,29.86,ENE,68,0.0,0.0,90,0.00,,,-99.99,open3600,2013-01-14 16:34:00,
2013-01-14 17:35:00,25.3,22.5,29.86,ENE,68,0.0,0.0,90,0.00,,,-99.99,open3600,2013-01-14 16:35:00,
2013-01-14 18:08:00,24.8,21.9,29.87,ENE,68,0.0,0.0,90,0.00,,,-99.99,open3600,2013-01-14 17:08:00,
2013-01-14 18:23:00,24.8,21.9,29.87,ENE,68,0.0,0.0,90,0.00,,,-99.99,open3600,2013-01-14 17:23:00,
2013-01-14 18:40:00,25.0,22.5,29.86,ENE,68,0.0,0.0,91,0.00,,,-99.99,open3600,2013-01-14 17:40:00,
2013-01-14 18:56:00,25.2,22.3,29.86,ENE,68,0.0,0.0,90,0.00,,,-99.99,open3600,2013-01-14 17:56:00,
2013-01-14 19:12:00,25.2,22.3,29.86,ENE,68,0.0,0.0,90,0.00,,,-99.99,open3600,2013-01-14 18:12:00,
2013-01-14 19:27:00,25.0,22.5,29.87,East,90,0.0,0.0,91,0.00,,,-99.99,open3600,2013-01-14 18:27:00,
2013-01-14 19:43:00,25.2,22.6,29.87,East,90,0.0,0.0,91,0.00,,,-99.99,open3600,2013-01-14 18:43:00,
2013-01-14 19:58:00,25.3,22.8,29.87,East,90,0.0,0.0,91,0.00,,,-99.99,open3600,2013-01-14 18:58:00,
2013-01-14 20:14:00,25.3,22.8,29.87,East,90,0.0,0.0,91,0.00,,,-99.99,open3600,2013-01-14 19:14:00,
2013-01-14 20:31:00,25.2,22.6,29.87,East,90,0.0,0.0,91,0.00,,,-99.99,open3600,2013-01-14 19:31:00,
2013-01-14 20:47:00,25.3,22.8,29.86,East,90,0.0,0.0,91,0.00,,,-99.99,open3600,2013-01-14 19:47:00,
2013-01-14 21:02:00,25.3,22.8,29.87,East,90,0.0,0.0,91,0.00,,,-99.99,open3600,2013-01-14 20:02:00,
2013-01-14 21:18:00,25.3,22.8,29.87,East,90,0.0,0.0,91,0.00,,,-99.99,open3600,2013-01-14 20:18:00,
2013-01-14 21:33:00,25.3,22.8,29.86,East,90,0.0,0.0,91,0.00,,,-99.99,open3600,2013-01-14 20:33:00,
2013-01-14 21:49:00,25.3,22.8,29.86,East,90,0.0,0.0,91,0.00,,,-99.99,open3600,2013-01-14 20:49:00,
2013-01-14 22:05:00,25.3,22.8,29.86,East,90,0.0,0.0,91,0.00,,,-99.99,open3600,2013-01-14 21:05:00,
2013-01-14 22:20:00,25.3,22.8,29.87,East,90,0.0,0.0,91,0.00,,,-99.99,open3600,2013-01-14 21:20:00,
2013-01-14 22:36:00,25.3,22.8,29.87,East,90,0.0,0.0,91,0.00,,,-99.99,open3600,2013-01-14 21:36:00,
2013-01-14 22:52:00,25.5,23.0,29.87,East,90,0.0,0.0,91,0.00,,,-99.99,open3600,2013-01-14 21:52:00,
2013-01-14 23:07:00,25.5,23.0,29.87,East,90,0.0,0.0,91,0.00,,,-99.99,open3600,2013-01-14 22:07:00,
2013-01-14 23:23:00,25.7,23.2,29.87,East,90,0.0,0.0,91,0.00,,,-99.99,open3600,2013-01-14 22:23:00,
2013-01-14 23:40:00,25.7,23.2,29.87,East,90,0.0,0.0,91,0.00,,,-99.99,open3600,2013-01-14 22:40:00,
2013-01-14 23:56:00,25.9,23.4,29.87,East,90,0.0,0.0,91,0.00,,,-99.99,open3600,2013-01-14 22:56:00,